Погода в Лаганасе

Греция     37°43′46″N   20°52′05″E
темп.,
°C
ветер,
м/с
пор.,
м/с
влажн.,
%
обл.,
%
осадки,
мм/ч
давл.,
гПа
погр.,
м
24 января, пн
пн2423:00+7ссз10125487 0.1 10211566
02:00+6ссз68505 0.1 10201059
05:00+5св56597 0.0 1019710
08:00+5ссв885059 0.1 10201123
11:00+6ссв88472 0.0 10221567
14:00+6ссв77420 0.0 10221538
17:00+5ссв775294 0.1 10221562
20:00+5св101151100 0.9 10241639
25 января, вт
вт2523:00+4св11125317 0.1 10251374
02:00+4св11125352 0.1 10261098
05:00+4св1113530 0.0 10251088
08:00+3ссв910560 0.0 1027858
11:00+5ссв88500 0.0 10281180
14:00+5ссв55425 0.0 10261233
17:00+5ссв453916 0.0 10261134
20:00+4ссз34400 0.0 1027600
26 января, ср
ср2623:00+4ссз45410 0.0 1027689
02:00+4ссз22390 0.0 1026512
05:00+5ссз45441 0.0 1025719
08:00+5с45523 0.0 1025624
11:00+8с35450 0.0 10261130
14:00+9ссз79538 0.0 10241449
17:00+8с68585 0.0 1024945
20:00+7ссз57625 0.0 1024738
27 января, чт
чт2723:00+6ссз23631 0.0 1025448
02:00+6св11633 0.0 1025326
05:00+5всв21661 0.0 1026255
08:00+5в21644 0.0 1026194
11:00+9в21542 0.0 1027489
14:00+10ю02510 0.0 1027775
17:00+9з12585 0.0 1027406
20:00+8сз24647 0.0 1027526
28 января, пт
пт2823:00+8ссз45663 0.0 1027542
02:00+8с23665 0.0 1027465
05:00+8с356927 0.0 1026375
08:00+9ссз456925 0.0 1027498
11:00+10с23633 0.0 1027581
14:00+11сз24625 0.0 1026727
17:00+11сз33675 0.0 1025596
20:00+10ссз11735 0.0 1025437